| time (UTC) | temp C | wind direction | speed KPH | gust KPH | rain 1hr cm | rain 24hr cm | rain mn cm | humidity % | barometer mb |
| 20260507095044 | 10 | 0 | 0.0 | 0.0 | 0.00 | 0.05 | 0.00 | 77 | 1020.8 |
| 20260507094020 | 10 | 0 | 0.0 | 0.0 | 0.00 | 0.05 | 0.00 | 79 | 1020.8 |
| 20260507093018 | 10 | 0 | 0.0 | 0.0 | 0.00 | 0.05 | 0.00 | 79 | 1020.7 |
| 20260507092020 | 11 | 0 | 0.0 | 0.0 | 0.00 | 0.05 | 0.00 | 77 | 1020.5 |
| 20260507090045 | 11 | 0 | 0.0 | 0.0 | 0.00 | 0.08 | 0.00 | 79 | 1020.5 |
| 20260507085020 | 11 | 0 | 0.0 | 0.0 | 0.00 | 0.08 | 0.00 | 80 | 1020.5 |
| 20260507084020 | 10 | 0 | 0.0 | 0.0 | 0.00 | 0.08 | 0.00 | 80 | 1020.5 |
| 20260507083021 | 10 | 0 | 0.0 | 0.0 | 0.00 | 0.10 | 0.00 | 80 | 1020.5 |
| 20260507082022 | 10 | 0 | 0.0 | 0.0 | 0.00 | 0.10 | 0.00 | 81 | 1020.5 |
| 20260507081043 | 10 | 0 | 0.0 | 0.0 | 0.00 | 0.10 | 0.00 | 81 | 1020.4 |
| 20260507080035 | 10 | 0 | 0.0 | 0.0 | 0.00 | 0.10 | 0.00 | 82 | 1020.4 |
| 20260507075028 | 9 | 0 | 0.0 | 0.0 | 0.00 | 0.10 | 0.00 | 84 | 1020.4 |
| 20260507074038 | 9 | 0 | 0.0 | 0.0 | 0.00 | 0.10 | 0.00 | 85 | 1020.3 |
| 20260507073021 | 9 | 0 | 0.0 | 0.0 | 0.00 | 0.10 | 0.00 | 85 | 1020.3 |
| 20260507072020 | 9 | 0 | 0.0 | 0.0 | 0.00 | 0.10 | 0.00 | 86 | 1020.3 |
| 20260507070039 | 8 | 0 | 0.0 | 0.0 | 0.00 | 0.10 | 0.00 | 86 | 1020.2 |
| 20260507065041 | 8 | 0 | 0.0 | 0.0 | 0.00 | 0.13 | 0.00 | 87 | 1020.2 |
| 20260507063042 | 8 | 0 | 0.0 | 0.0 | 0.00 | 0.15 | 0.00 | 90 | 1020.1 |
| 20260507062041 | 7 | 0 | 0.0 | 0.0 | 0.00 | 0.18 | 0.00 | 90 | 1020.0 |
| 20260507061043 | 7 | 0 | 0.0 | 0.0 | 0.00 | 0.18 | 0.00 | 91 | 1020.0 |
| 20260507060022 | 7 | 0 | 0.0 | 0.0 | 0.00 | 0.20 | 0.00 | 92 | 1019.9 |
| 20260507055023 | 7 | 0 | 0.0 | 0.0 | 0.00 | 0.23 | 0.00 | 93 | 1019.8 |
| 20260507054022 | 7 | 0 | 0.0 | 0.0 | 0.00 | 0.25 | 0.00 | 94 | 1019.7 |
| 20260507053020 | 7 | 0 | 0.0 | 0.0 | 0.00 | 0.30 | 0.00 | 95 | 1019.7 |
| 20260507052020 | 6 | 0 | 0.0 | 0.0 | 0.00 | 0.33 | 0.00 | 96 | 1019.6 |
| 20260507051042 | 6 | 0 | 0.0 | 0.0 | 0.00 | 0.36 | 0.00 | 96 | 1019.5 |
| 20260507050037 | 6 | 0 | 0.0 | 0.0 | 0.00 | 0.38 | 0.00 | 97 | 1019.4 |
| 20260507045038 | 6 | 0 | 0.0 | 0.0 | 0.00 | 0.41 | 0.00 | 97 | 1019.3 |
| 20260507044021 | 6 | 0 | 0.0 | 0.0 | 0.00 | 0.43 | 0.00 | 97 | 1019.2 |
| 20260507043042 | 6 | 0 | 0.0 | 0.0 | 0.00 | 0.46 | 0.00 | 97 | 1019.2 |
| 20260507042021 | 6 | 0 | 0.0 | 0.0 | 0.00 | 0.48 | 0.00 | 97 | 1019.1 |
| 20260507041042 | 6 | 0 | 0.0 | 0.0 | 0.00 | 0.48 | 0.00 | 96 | 1019.0 |
| 20260507040021 | 6 | 0 | 0.0 | 0.0 | 0.00 | 0.51 | 0.00 | 96 | 1019.0 |
| 20260507035021 | 6 | 0 | 0.0 | 0.0 | 0.00 | 0.51 | 0.00 | 96 | 1018.9 |
| 20260507034021 | 6 | 0 | 0.0 | 0.0 | 0.00 | 0.51 | 0.00 | 96 | 1018.9 |
| 20260507032017 | 6 | 0 | 0.0 | 0.0 | 0.00 | 0.51 | 0.00 | 96 | 1018.9 |
| 20260507031022 | 6 | 0 | 0.0 | 0.0 | 0.00 | 0.51 | 0.00 | 96 | 1018.8 |
| 20260507025044 | 6 | 0 | 0.0 | 0.0 | 0.00 | 0.53 | 0.00 | 96 | 1018.7 |
| 20260507024021 | 6 | 0 | 0.0 | 0.0 | 0.00 | 0.56 | 0.00 | 96 | 1018.7 |
| 20260507023040 | 6 | 0 | 0.0 | 0.0 | 0.00 | 0.56 | 0.00 | 96 | 1018.6 |
| 20260507022021 | 6 | 0 | 0.0 | 0.0 | 0.00 | 0.58 | 0.00 | 96 | 1018.5 |
| 20260507021042 | 6 | 0 | 0.0 | 0.0 | 0.00 | 0.58 | 0.00 | 97 | 1018.4 |
| 20260507020041 | 6 | 0 | 0.0 | 0.0 | 0.00 | 0.61 | 0.00 | 97 | 1018.4 |
| 20260507015020 | 6 | 0 | 0.0 | 0.0 | 0.00 | 0.61 | 0.00 | 97 | 1018.3 |
| 20260507014020 | 6 | 0 | 0.0 | 0.0 | 0.00 | 0.64 | 0.00 | 97 | 1018.3 |
| 20260507013017 | 6 | 0 | 0.0 | 0.0 | 0.00 | 0.66 | 0.00 | 97 | 1018.3 |
| 20260507012020 | 6 | 0 | 0.0 | 0.0 | 0.00 | 0.69 | 0.00 | 97 | 1018.3 |
| 20260507011017 | 6 | 0 | 0.0 | 0.0 | 0.00 | 0.71 | 0.00 | 97 | 1018.3 |
| 20260507010042 | 6 | 0 | 0.0 | 0.0 | 0.00 | 0.71 | 0.00 | 97 | 1018.3 |
| 20260507005022 | 6 | 0 | 0.0 | 0.0 | 0.00 | 0.76 | 0.00 | 97 | 1018.3 |
| 20260507004022 | 6 | 0 | 0.0 | 0.0 | 0.00 | 0.76 | 0.00 | 97 | 1018.2 |
| 20260507002021 | 6 | 0 | 0.0 | 0.0 | 0.00 | 0.79 | 0.00 | 97 | 1018.2 |
| 20260507001021 | 6 | 0 | 0.0 | 0.0 | 0.00 | 0.79 | 0.00 | 97 | 1018.2 |
| 20260507000040 | 6 | 0 | 0.0 | 0.0 | 0.00 | 0.81 | 0.00 | 97 | 1018.2 |
| 20260506235022 | 6 | 0 | 0.0 | 0.0 | 0.00 | 0.81 | 0.00 | 98 | 1018.2 |
| 20260506234022 | 6 | 0 | 0.0 | 0.0 | 0.00 | 0.84 | 0.00 | 98 | 1018.1 |
| 20260506233021 | 6 | 0 | 0.0 | 0.0 | 0.00 | 0.86 | 0.00 | 98 | 1018.1 |
| 20260506232022 | 5 | 0 | 0.0 | 0.0 | 0.00 | 0.86 | 0.00 | 98 | 1018.1 |
| 20260506230022 | 5 | 0 | 0.0 | 0.0 | 0.00 | 0.89 | 0.00 | 97 | 1018.0 |
| 20260506224045 | 3 | 0 | 0.0 | 0.0 | 0.00 | 0.91 | 0.00 | 96 | 1018.0 |
| 20260506223032 | 3 | 0 | 0.0 | 0.0 | 0.00 | 0.94 | 0.00 | 96 | 1017.9 |
| 20260506222022 | 4 | 0 | 0.0 | 0.0 | 0.00 | 0.94 | 0.00 | 95 | 1017.9 |
| 20260506215047 | 5 | 0 | 0.0 | 0.0 | 0.00 | 0.99 | 0.97 | 93 | 1017.6 |
| 20260506214022 | 5 | 0 | 0.0 | 0.0 | 0.00 | 0.99 | 0.97 | 93 | 1017.4 |
| 20260506213032 | 5 | 0 | 0.0 | 0.0 | 0.00 | 0.99 | 0.97 | 92 | 1017.3 |
| 20260506212049 | 6 | 0 | 0.0 | 0.0 | 0.00 | 0.99 | 0.97 | 91 | 1017.1 |
| 20260506211038 | 7 | 0 | 0.0 | 0.0 | 0.00 | 1.02 | 0.97 | 90 | 1016.9 |
| 20260506210037 | 7 | 0 | 0.0 | 0.0 | 0.00 | 1.04 | 0.97 | 89 | 1016.8 |
| 20260506205042 | 7 | 0 | 0.0 | 0.0 | 0.00 | 1.04 | 0.97 | 88 | 1016.7 |
| 20260506204044 | 7 | 0 | 0.0 | 0.0 | 0.00 | 1.07 | 0.97 | 86 | 1016.5 |
| 20260506202022 | 8 | 0 | 0.0 | 0.0 | 0.00 | 1.09 | 0.97 | 85 | 1016.3 |
| 20260506193022 | 9 | 0 | 0.0 | 0.0 | 0.00 | 1.17 | 0.97 | 91 | 1015.7 |
| 20260506192026 | 9 | 0 | 0.0 | 0.0 | 0.00 | 1.17 | 0.97 | 91 | 1015.6 |
| 20260506191021 | 10 | 0 | 0.0 | 0.0 | 0.00 | 1.19 | 0.97 | 90 | 1015.5 |
| 20260506190022 | 10 | 0 | 0.0 | 0.0 | 0.00 | 1.22 | 0.97 | 89 | 1015.4 |
| 20260506185037 | 10 | 0 | 0.0 | 0.0 | 0.00 | 1.24 | 0.97 | 90 | 1015.3 |
| 20260506184022 | 10 | 0 | 0.0 | 0.0 | 0.00 | 1.27 | 0.97 | 90 | 1015.1 |
| 20260506183022 | 10 | 0 | 0.0 | 0.0 | 0.00 | 1.30 | 0.97 | 91 | 1015.0 |
| 20260506182021 | 10 | 0 | 0.0 | 0.0 | 0.00 | 1.35 | 0.97 | 91 | 1014.9 |
| 20260506180021 | 10 | 0 | 0.0 | 0.0 | 0.00 | 1.42 | 0.97 | 90 | 1014.8 |
| 20260506175022 | 10 | 0 | 0.0 | 0.0 | 0.00 | 1.45 | 0.97 | 90 | 1014.6 |
| 20260506174032 | 10 | 0 | 0.0 | 0.0 | 0.00 | 1.45 | 0.97 | 90 | 1014.5 |
| 20260506173021 | 10 | 0 | 0.0 | 0.0 | 0.00 | 1.47 | 0.97 | 89 | 1014.4 |
| 20260506172046 | 10 | 0 | 0.0 | 0.0 | 0.00 | 1.50 | 0.97 | 88 | 1014.4 |
| 20260506171021 | 10 | 0 | 0.0 | 0.0 | 0.00 | 1.52 | 0.97 | 87 | 1014.3 |
| 20260506170017 | 10 | 0 | 0.0 | 0.0 | 0.00 | 1.55 | 0.97 | 87 | 1014.2 |
| 20260506165021 | 10 | 0 | 0.0 | 0.0 | 0.00 | 1.55 | 0.97 | 86 | 1014.2 |
| 20260506164020 | 10 | 0 | 0.0 | 0.0 | 0.00 | 1.55 | 0.97 | 86 | 1014.1 |
| 20260506163022 | 10 | 0 | 0.0 | 0.0 | 0.00 | 1.55 | 0.97 | 86 | 1014.0 |
| 20260506162030 | 11 | 0 | 0.0 | 0.0 | 0.00 | 1.55 | 0.97 | 86 | 1014.0 |
| 20260506161021 | 11 | 0 | 0.0 | 0.0 | 0.00 | 1.55 | 0.97 | 87 | 1014.0 |
| 20260506160021 | 11 | 0 | 0.0 | 0.0 | 0.00 | 1.55 | 0.97 | 87 | 1014.1 |
| 20260506154047 | 11 | 0 | 0.0 | 0.0 | 0.00 | 1.55 | 0.97 | 86 | 1014.1 |
| 20260506153021 | 10 | 0 | 0.0 | 0.0 | 0.00 | 1.55 | 0.97 | 85 | 1014.1 |
| 20260506152044 | 10 | 0 | 0.0 | 0.0 | 0.00 | 1.55 | 0.97 | 85 | 1014.0 |
| 20260506151044 | 10 | 0 | 0.0 | 0.0 | 0.00 | 1.55 | 0.97 | 86 | 1014.0 |
| 20260506150021 | 10 | 0 | 0.0 | 0.0 | 0.00 | 1.55 | 0.97 | 87 | 1014.0 |
| 20260506144021 | 10 | 0 | 0.0 | 0.0 | 0.00 | 1.55 | 0.97 | 86 | 1014.1 |
| 20260506143020 | 10 | 0 | 0.0 | 0.0 | 0.00 | 1.55 | 0.97 | 87 | 1014.0 |
| 20260506142017 | 10 | 0 | 0.0 | 0.0 | 0.00 | 1.55 | 0.97 | 88 | 1014.1 |
| 20260506140020 | 10 | 0 | 0.0 | 0.0 | 0.00 | 1.55 | 0.97 | 88 | 1014.1 |
| 20260506135022 | 10 | 0 | 0.0 | 0.0 | 0.00 | 1.55 | 0.97 | 89 | 1014.1 |
| 20260506134017 | 10 | 0 | 0.0 | 0.0 | 0.00 | 1.55 | 0.97 | 89 | 1014.2 |
| 20260506133045 | 10 | 0 | 0.0 | 0.0 | 0.00 | 1.55 | 0.97 | 87 | 1014.1 |
| 20260506132023 | 10 | 0 | 0.0 | 0.0 | 0.00 | 1.55 | 0.97 | 87 | 1014.1 |
| 20260506131022 | 10 | 0 | 0.0 | 0.0 | 0.00 | 1.55 | 0.97 | 88 | 1014.0 |
| 20260506124022 | 10 | 0 | 0.0 | 0.0 | 0.00 | 1.55 | 0.97 | 89 | 1013.8 |
| 20260506123022 | 10 | 0 | 0.0 | 0.0 | 0.00 | 1.55 | 0.97 | 90 | 1013.8 |
| 20260506122017 | 10 | 0 | 0.0 | 0.0 | 0.00 | 1.55 | 0.97 | 89 | 1013.8 |
| 20260506121021 | 9 | 0 | 0.0 | 0.0 | 0.00 | 1.55 | 0.97 | 89 | 1013.7 |
| 20260506120022 | 9 | 0 | 0.0 | 0.0 | 0.00 | 1.55 | 0.97 | 90 | 1013.6 |
| 20260506115022 | 9 | 0 | 0.0 | 0.0 | 0.00 | 1.55 | 0.97 | 91 | 1013.6 |
| 20260506114021 | 10 | 0 | 0.0 | 0.0 | 0.03 | 1.55 | 0.97 | 92 | 1013.4 |
| 20260506113043 | 10 | 0 | 0.0 | 0.0 | 0.03 | 1.55 | 0.97 | 94 | 1013.4 |
| 20260506111021 | 8 | 0 | 0.0 | 0.0 | 0.03 | 1.55 | 0.97 | 97 | 1013.6 |
| 20260506110021 | 8 | 0 | 0.0 | 0.0 | 0.03 | 1.55 | 0.97 | 97 | 1013.7 |
| 20260506105021 | 8 | 0 | 0.0 | 0.0 | 0.05 | 1.55 | 0.97 | 97 | 1013.7 |
| 20260506104018 | 8 | 0 | 0.0 | 0.0 | 0.05 | 1.55 | 0.97 | 97 | 1013.8 |
| 20260506103021 | 8 | 0 | 0.0 | 0.0 | 0.03 | 1.55 | 0.94 | 97 | 1013.8 |
| 20260506102023 | 8 | 0 | 0.0 | 0.0 | 0.05 | 1.55 | 0.94 | 97 | 1013.7 |
| 20260506101017 | 7 | 0 | 0.0 | 0.0 | 0.05 | 1.55 | 0.94 | 97 | 1013.7 |